This demonstration page uses our WeatherBlox Daily Observations layout. Learn more.

Left ArrowRight Arrow

Hourly Observations for August 6, 2019

Temp ( °F °C ) Dew Point ( °F °C ) Humidity (%) Winds ( mph kmh ) Pressure ( in mb ) Visibility ( mi km ) Precip ( " mm )
12:56 am 00:56 Mostly Clear 79 26 70 21 74 74 NW 7 11 29.88 1012 10 16 0.00 0.00
1:56 am 01:56 Mostly Clear 79 26 70 21 74 74 N 3 6 29.89 1012 10 16 0.00 0.00
2:56 am 02:56 Mostly Clear 77 25 68 20 74 74 VRB 7 11 29.90 1013 10 16 0.00 0.00
3:56 am 03:56 Mostly Clear 75 24 68 20 78 78 Calm 29.91 1013 10 16 0.00 0.00
4:56 am 04:56 Mostly Clear 73 23 66 19 78 78 VRB 7 11 29.92 1013 10 16 0.00 0.00
5:56 am 05:56 Mostly Clear 72 22 66 19 83 83 VRB 7 11 29.92 1013 10 16 0.00 0.00
6:56 am 06:56 Mostly Sunny 70 21 64 18 83 83 VRB 7 11 29.94 1014 10 16 0.00 0.00
7:56 am 07:56 Sunny 73 23 64 18 74 74 Calm 29.95 1014 10 16 0.00 0.00
8:56 am 08:56 Sunny 75 24 64 18 69 69 Calm 29.95 1014 10 16 0.00 0.00
9:56 am 09:56 Sunny 79 26 63 17 58 58 Calm 29.95 1014 10 16 0.00 0.00
10:56 am 10:56 Sunny 81 27 61 16 51 51 NNE 3 6 29.96 1014 10 16 0.00 0.00
11:56 am 11:56 Mostly Sunny 82 28 59 15 45 45 Calm 29.95 1014 10 16 0.00 0.00
12:56 pm 12:56 Mostly Sunny 84 29 57 14 40 40 NNE 3 6 29.94 1014 10 16 0.00 0.00
1:56 pm 13:56 Sunny 86 30 54 12 33 33 Calm 29.93 1013 10 16 0.00 0.00
2:56 pm 14:56 Mostly Sunny 86 30 52 11 31 31 NNE 3 6 29.91 1013 10 16 0.00 0.00
3:56 pm 15:56 Mostly Sunny 88 31 54 12 31 31 NNE 8 13 29.91 1013 10 16 0.00 0.00
4:56 pm 16:56 Mostly Sunny 88 31 55 13 33 33 NE 6 9 29.89 1012 10 16 0.00 0.00
5:56 pm 17:56 Mostly Sunny 86 30 57 14 38 38 Calm 29.88 1012 10 16 0.00 0.00
6:56 pm 18:56 Mostly Sunny 84 29 61 16 45 45 ENE 6 9 29.86 1011 10 16 0.00 0.00
7:56 pm 19:56 Mostly Sunny 82 28 63 17 51 51 Calm 29.86 1011 10 16 0.00 0.00
8:56 pm 20:56 Mostly Cloudy 81 27 64 18 58 58 Calm 29.87 1012 10 16 0.00 0.00
9:56 pm 21:56 Mostly Clear 79 26 64 18 61 61 Calm 29.89 1012 10 16 0.00 0.00
10:56 pm 22:56 Mostly Clear 77 25 64 18 65 65 Calm 29.89 1012 10 16 0.00 0.00
11:56 pm 23:56 Mostly Cloudy 75 24 64 18 69 69 VRB 7 11 29.89 1012 10 16 0.00 0.00

Powered by AerisWeather